Temp
64 64 64 65 65 65 65 65 64 64 64 64 64 64 63 63 63 56 52 62 65 70 67 64 63 63 62 58 59 55 45 41 45 48 51 55 55 58 59 58 57 58 57 58 61
63 63 63 64 64 64 64 65 64 64 64 64 64 64 64 63 55 52 62 67 69 69 62 58 55 58 54 54 56 51 42 46 51 51 50 55 54 54 55 55 55 57 59 60 61
62 62 62 62 63 64 64 64 63 64 63 63 63 63 63 60 51 52 66 68 69 67 62 61 59 57 51 51 51 49 46 50 53 55 56 55 55 56 55 51 57 57 57 58 57
61 62 62 62 62 62 63 63 63 63 63 63 63 63 62 56 41 58 67 67 68 64 61 58 55 51 48 48 53 46 53 53 55 57 56 54 57 56 54 57 61 59 59 59 58
60 60 60 60 60 61 61 62 62 62 62 63 63 63 58 49 48 62 64 65 63 60 57 55 52 51 46 48 49 47 50 54 56 55 55 56 54 55 54 60 58 59 59 59 59
58 59 59 59 60 61 61 61 62 62 62 63 63 62 53 42 60 62 61 62 59 57 55 56 53 54 49 47 48 49 51 51 53 55 55 53 53 53 56 56 59 58 58 58 59
58 58 58 59 60 60 61 61 61 61 61 62 63 59 51 50 61 60 61 59 60 58 53 56 56 52 51 47 52 49 43 46 49 53 53 53 50 49 58 57 57 57 57 57 58
57 57 58 58 59 60 60 60 60 60 61 61 62 57 49 62 62 59 58 59 60 60 58 59 59 53 49 51 49 43 42 36 46 52 54 54 44 50 54 53 55 54 53 55 56
56 56 57 58 58 58 59 60 60 61 61 61 55 51 48 62 54 60 59 55 57 58 58 61 56 48 47 41 37 36 29 35 42 50 50 50 42 49 53 52 52 51 53 53 55
56 56 56 57 58 58 58 60 59 58 57 57 55 47 51 49 54 56 56 58 53 54 53 51 46 40 40 39 31 32 33 36 36 43 45 44 43 50 50 48 49 51 51 52 53
56 56 55 56 57 58 55 51 44 43 46 43 45 47 49 56 58 53 55 53 52 48 43 48 41 35 40 43 39 38 36 36 36 45 42 41 43 49 52 47 48 49 48 51 54
55 55 55 56 57 57 53 45 45 47 38 48 49 50 54 55 47 50 57 48 44 41 44 42 38 43 44 44 41 37 35 33 39 44 43 40 40 45 47 48 48 50 48 50 52
55 55 55 56 55 53 47 46 50 51 38 41 46 48 50 52 47 47 52 48 45 42 42 39 41 48 45 42 40 40 37 34 36 40 40 39 41 43 45 45 48 49 52 52 53
54 54 54 55 48 48 45 49 52 49 31 32 39 44 49 49 44 53 53 51 43 40 43 42 48 43 41 39 42 35 42 40 39 37 31 38 33 41 39 45 46 48 49 49 52
54 54 54 55 46 43 48 50 51 44 17 36 39 52 50 44 45 45 53 50 41 40 42 39 40 40 38 41 44 39 45 42 40 36 34 32 28 33 37 38 43 48 48 49 52
53 53 54 49 47 48 50 51 45 26 17 29 39 38 38 42 45 45 43 49 48 44 45 44 43 46 44 45 46 45 39 38 38 36 29 34 32 38 42 42 43 48 50 51 51
53 53 51 49 41 49 50 42 26 19 31 29 33 37 38 37 39 41 40 38 36 32 33 39 38 40 45 38 41 41 36 21 26 26 25 34 30 39 39 42 47 49 51 52 50
53 52 50 49 50 48 44 32 19 26 25 35 37 36 34 38 39 39 38 35 42 38 33 32 29 39 41 40 39 40 40 26 17 21 28 33 29 37 45 51 56 58 59 50 49
52 44 43 47 49 46 35 23 24 22 31 28 33 31 31 37 35 37 37 34 39 41 33 32 33 40 40 43 46 39 35 40 27 22 20 28 32 42 45 43 47 47 45 46 46
41 40 41 48 48 42 30 27 26 34 37 36 22 30 27 31 32 33 34 42 36 43 45 35 33 37 42 43 44 42 44 32 31 20 17 26 27 34 36 42 42 44 44 44 44
40 33 40 49 45 34 25 26 28 34 37 33 26 22 30 29 33 32 34 40 41 40 45 40 34 31 38 37 38 37 36 36 36 32 24 19 29 37 43 44 44 43 43 44 44
36 27 43 46 30 31 27 29 34 32 35 32 34 30 24 32 30 32 34 39 45 42 37 40 35 26 32 43 47 45 40 37 30 24 30 27 32 42 43 43 44 43 43 42 43
32 32 42 41 25 26 28 28 32 30 29 30 27 34 35 29 27 32 36 42 43 42 37 39 32 27 28 33 37 38 40 41 40 34 30 27 32 44 42 41 42 42 41 42 42
30 26 32 35 32 27 22 21 26 32 31 30 31 35 32 30 31 27 29 38 42 43 46 45 34 30 29 30 33 32 36 39 38 32 31 31 36 40 37 40 40 41 42 42 43
32 24 25 25 27 27 27 24 26 23 30 32 25 30 29 24 29 28 32 34 37 43 43 41 32 35 37 33 35 37 36 37 36 38 32 37 34 42 41 40 42 44 41 42 42
28 27 30 17 30 29 30 25 26 28 27 24 22 29 31 26 32 30 32 34 34 38 38 41 31 34 30 36 34 29 35 37 39 39 39 39 37 48 46 42 41 42 41 40 40
32 32 31 30 28 27 25 27 27 29 31 33 32 29 29 32 38 39 38 36 34 34 35 36 32 30 26 34 34 28 34 34 38 39 40 34 42 47 38 42 44 41 40 40 36
MSLP
1018.66 1018.72 1018.93 1018.91 1018.93 1018.97 1019.02 1019.17 1019.37 1019.52 1019.59 1019.71 1019.85 1019.95 1019.99 1019.87 1019.95 1020.00 1019.48 1018.39 1018.01 1017.76 1017.60 1017.68 1017.53 1017.48 1017.29 1017.64 1017.95 1018.49 1019.30 1019.52 1018.59 1017.95 1017.29 1016.92 1016.62 1016.43 1016.35 1016.51 1016.81 1016.95 1017.26 1017.54 1017.72
1018.36 1018.47 1018.57 1018.67 1018.77 1018.82 1018.93 1019.00 1019.07 1019.14 1019.33 1019.48 1019.69 1019.79 1019.82 1019.85 1020.03 1019.41 1018.46 1017.99 1017.81 1017.97 1018.00 1017.91 1017.96 1017.84 1018.05 1018.08 1018.33 1018.92 1019.57 1018.93 1018.10 1017.60 1017.36 1017.04 1016.70 1016.60 1016.61 1016.73 1016.88 1016.97 1017.18 1017.59 1017.98
1018.13 1018.11 1018.33 1018.56 1018.59 1018.62 1018.75 1018.80 1018.92 1019.02 1019.19 1019.32 1019.49 1019.62 1019.77 1019.88 1020.06 1018.20 1017.48 1017.61 1017.75 1017.89 1018.00 1017.91 1017.96 1018.09 1018.48 1018.50 1018.61 1019.00 1019.17 1018.42 1017.93 1017.46 1017.32 1017.13 1017.01 1016.82 1016.69 1016.91 1016.71 1016.92 1017.24 1017.89 1018.32
1017.81 1017.92 1018.05 1018.23 1018.42 1018.51 1018.53 1018.60 1018.74 1018.71 1018.86 1018.99 1019.24 1019.50 1019.80 1020.01 1019.67 1017.62 1017.40 1017.36 1017.22 1017.88 1018.08 1018.11 1018.18 1018.55 1018.80 1018.81 1018.60 1018.97 1018.66 1018.18 1017.74 1017.69 1017.55 1017.36 1017.32 1017.29 1016.96 1016.59 1016.49 1016.76 1017.07 1017.73 1018.29
1017.60 1017.69 1017.84 1018.09 1018.29 1018.40 1018.54 1018.54 1018.63 1018.70 1018.79 1018.83 1019.02 1019.39 1019.93 1020.04 1018.90 1017.30 1017.45 1017.44 1017.31 1018.00 1018.16 1018.36 1018.52 1018.65 1018.95 1018.87 1018.82 1018.78 1018.60 1018.22 1017.78 1017.88 1017.85 1017.77 1017.64 1017.60 1017.14 1016.75 1016.74 1016.89 1017.21 1017.69 1018.04
1017.29 1017.36 1017.58 1017.80 1017.99 1018.15 1018.32 1018.40 1018.53 1018.58 1018.57 1018.53 1018.83 1019.16 1019.61 1019.21 1018.10 1017.53 1017.54 1017.58 1017.84 1017.86 1018.36 1018.46 1018.68 1018.62 1018.82 1018.96 1018.89 1018.54 1018.53 1018.40 1018.19 1018.02 1017.94 1017.98 1017.78 1017.75 1016.95 1016.70 1017.03 1017.18 1017.37 1017.61 1017.92
1016.98 1017.07 1017.17 1017.37 1017.75 1017.93 1018.14 1018.25 1018.38 1018.42 1018.51 1018.57 1018.65 1018.92 1018.27 1017.36 1017.37 1017.41 1017.48 1017.61 1017.68 1017.93 1018.37 1018.50 1018.69 1018.85 1018.81 1019.00 1018.82 1018.90 1019.10 1019.02 1018.72 1018.41 1018.09 1018.09 1017.93 1017.07 1016.91 1016.75 1017.15 1017.42 1017.50 1017.68 1017.68
1016.59 1016.76 1016.95 1017.15 1017.29 1017.53 1017.73 1018.02 1018.22 1018.25 1018.32 1018.42 1018.51 1018.63 1016.74 1016.43 1016.97 1017.35 1017.67 1017.77 1017.74 1017.99 1018.34 1018.56 1018.62 1019.12 1019.30 1019.17 1019.20 1019.51 1019.66 1019.69 1018.78 1018.44 1018.12 1018.41 1017.43 1017.16 1017.12 1017.10 1017.03 1017.46 1017.80 1017.69 1017.58
1016.24 1016.42 1016.58 1016.79 1017.09 1017.25 1017.43 1017.66 1017.84 1017.93 1018.12 1018.20 1018.52 1018.56 1016.71 1016.21 1016.61 1017.17 1017.71 1018.20 1018.28 1018.21 1018.46 1018.77 1019.02 1019.58 1019.78 1020.04 1020.35 1020.33 1020.17 1020.06 1019.28 1018.36 1018.17 1018.36 1017.65 1017.24 1016.83 1017.19 1017.51 1017.53 1017.53 1017.70 1017.53
1015.83 1015.99 1016.19 1016.50 1016.66 1016.91 1017.13 1017.34 1017.54 1017.75 1018.00 1018.24 1018.26 1018.60 1016.71 1016.00 1016.14 1016.66 1017.19 1018.06 1018.56 1018.50 1018.82 1019.17 1019.55 1019.76 1019.95 1020.07 1019.72 1020.35 1020.66 1020.03 1019.27 1018.68 1018.50 1018.35 1017.85 1016.78 1017.15 1017.44 1017.65 1017.60 1017.40 1017.41 1017.24
1015.31 1015.48 1015.74 1016.02 1016.20 1016.52 1017.08 1017.77 1018.35 1018.21 1017.71 1016.93 1016.61 1016.27 1015.68 1015.80 1016.29 1016.67 1016.94 1017.93 1018.68 1018.79 1018.82 1019.07 1019.54 1018.07 1018.36 1019.57 1019.77 1019.90 1020.04 1019.88 1019.40 1018.81 1018.83 1018.44 1018.22 1016.95 1016.83 1017.32 1017.53 1017.59 1017.63 1017.23 1016.62
1014.66 1014.85 1015.22 1015.55 1015.65 1016.03 1016.57 1016.83 1017.04 1017.52 1017.05 1016.56 1016.33 1016.12 1015.93 1015.80 1015.96 1016.36 1016.65 1017.45 1018.31 1018.20 1018.67 1019.28 1017.44 1018.08 1018.90 1019.53 1019.87 1020.21 1020.12 1019.90 1019.46 1018.95 1019.02 1018.66 1017.84 1017.26 1016.52 1016.35 1016.48 1016.94 1017.19 1016.62 1016.03
1013.89 1014.32 1014.67 1015.04 1015.33 1015.76 1015.99 1015.97 1016.61 1017.17 1017.28 1015.78 1015.21 1015.02 1015.47 1015.95 1015.69 1015.97 1016.13 1015.96 1016.92 1017.92 1017.69 1017.66 1016.63 1017.51 1018.32 1019.14 1019.58 1019.64 1019.78 1019.95 1019.82 1019.37 1019.28 1019.20 1017.08 1016.44 1015.31 1015.32 1015.59 1015.74 1015.62 1015.44 1015.22
1013.34 1013.70 1014.07 1014.64 1015.48 1015.31 1015.49 1016.24 1016.55 1017.70 1016.85 1014.79 1014.44 1013.13 1014.33 1015.43 1015.22 1015.23 1015.47 1015.78 1016.31 1015.98 1017.21 1017.46 1016.98 1017.14 1017.82 1018.24 1018.80 1019.41 1019.32 1020.01 1020.26 1020.38 1020.43 1019.76 1017.35 1015.58 1015.16 1015.07 1015.10 1015.26 1015.20 1014.88 1014.84
1012.78 1012.97 1013.42 1013.88 1014.12 1014.56 1015.01 1015.95 1016.52 1018.13 1015.10 1012.41 1012.16 1011.64 1012.35 1014.21 1014.29 1014.22 1015.13 1015.45 1015.25 1015.43 1016.65 1015.08 1016.03 1016.84 1017.54 1016.79 1018.20 1018.11 1018.61 1019.65 1020.35 1020.71 1020.96 1020.29 1019.76 1014.39 1015.05 1014.95 1014.92 1014.62 1014.58 1014.31 1013.91
1012.07 1012.34 1012.75 1013.39 1013.92 1013.97 1014.83 1015.50 1016.50 1016.41 1013.35 1012.21 1011.33 1011.03 1012.25 1013.22 1013.82 1014.10 1014.78 1015.49 1015.64 1015.51 1015.40 1014.40 1015.33 1015.81 1015.41 1016.64 1017.34 1018.17 1019.00 1019.93 1020.56 1021.21 1021.17 1018.28 1019.52 1013.56 1014.69 1014.12 1014.06 1013.92 1013.89 1013.69 1013.80
1011.14 1011.53 1012.04 1012.47 1012.82 1013.51 1014.25 1015.11 1014.64 1012.82 1013.19 1012.32 1011.19 1011.04 1011.25 1011.77 1013.00 1013.77 1013.50 1014.27 1014.24 1014.83 1014.51 1014.98 1015.43 1015.42 1015.35 1016.26 1017.01 1017.78 1018.68 1020.25 1020.95 1020.57 1019.01 1018.84 1019.31 1014.93 1013.53 1013.48 1013.37 1013.72 1013.68 1013.41 1013.52
1010.10 1010.82 1010.98 1011.56 1012.09 1013.02 1013.52 1013.48 1011.87 1011.49 1012.26 1011.96 1011.16 1011.29 1011.03 1011.44 1012.07 1012.68 1013.10 1013.05 1013.74 1014.38 1014.36 1014.09 1014.71 1014.51 1014.33 1014.51 1015.36 1016.57 1017.32 1017.79 1019.05 1019.71 1019.07 1018.79 1017.28 1013.49 1012.79 1012.35 1013.04 1012.18 1012.80 1013.19 1013.54
1009.60 1010.19 1010.61 1010.67 1011.49 1012.44 1012.45 1011.04 1010.57 1010.84 1011.06 1011.26 1011.44 1011.29 1011.40 1011.49 1011.51 1012.14 1012.29 1012.71 1012.37 1012.33 1013.28 1013.38 1012.91 1012.81 1013.74 1014.23 1014.57 1015.51 1015.88 1016.73 1018.30 1019.51 1019.16 1017.73 1015.80 1013.76 1012.57 1012.83 1012.83 1012.67 1013.08 1013.48 1013.67
1009.17 1009.68 1009.40 1009.80 1010.67 1011.35 1011.19 1010.39 1010.90 1010.81 1010.24 1010.77 1011.47 1011.67 1011.18 1011.27 1011.60 1011.47 1011.31 1011.20 1011.96 1011.79 1011.98 1012.20 1012.49 1012.73 1013.50 1013.83 1013.78 1014.03 1015.11 1016.52 1017.09 1017.97 1018.21 1016.83 1015.79 1013.54 1012.58 1012.43 1012.67 1013.01 1013.51 1013.89 1014.32
1008.92 1009.18 1008.32 1008.75 1010.34 1009.95 1009.78 1009.80 1010.22 1010.37 1010.25 1010.94 1011.55 1011.83 1011.73 1011.69 1011.28 1010.87 1010.19 1010.71 1011.42 1011.95 1012.17 1012.42 1013.06 1013.58 1012.92 1012.16 1012.27 1013.83 1014.28 1015.00 1015.58 1016.24 1016.13 1015.98 1014.20 1012.54 1012.01 1012.25 1012.58 1013.14 1013.54 1013.84 1014.38
1008.11 1008.27 1007.27 1008.03 1009.07 1008.09 1009.29 1009.42 1010.13 1010.48 1010.87 1011.37 1011.49 1011.87 1012.12 1011.75 1011.46 1010.94 1010.06 1009.74 1009.83 1011.15 1011.41 1012.08 1012.51 1012.61 1011.87 1011.53 1011.88 1012.05 1012.34 1013.43 1013.92 1014.68 1014.72 1014.04 1012.50 1011.36 1011.43 1011.92 1012.45 1013.15 1013.66 1014.07 1014.41
1007.74 1007.73 1007.31 1006.94 1007.61 1008.39 1008.70 1009.61 1009.85 1010.83 1011.10 1011.52 1011.97 1012.00 1011.97 1012.15 1012.11 1010.99 1010.24 1009.50 1009.63 1010.06 1010.49 1011.66 1011.91 1011.76 1012.12 1012.51 1011.93 1011.65 1011.84 1012.31 1012.80 1013.30 1013.35 1013.40 1011.94 1011.40 1011.72 1012.11 1012.45 1013.15 1013.84 1014.12 1014.43
1007.16 1006.79 1006.75 1007.08 1007.10 1007.76 1008.78 1009.92 1010.58 1010.66 1010.93 1011.16 1011.56 1011.95 1012.18 1011.98 1012.35 1011.79 1011.22 1010.70 1009.64 1009.46 1009.96 1010.52 1010.49 1009.88 1009.63 1010.16 1010.43 1011.45 1011.51 1011.59 1011.91 1012.32 1012.10 1012.19 1011.70 1011.07 1011.72 1012.09 1012.44 1013.08 1013.74 1014.18 1014.72
1005.45 1006.23 1006.06 1006.31 1007.63 1008.02 1008.91 1009.67 1010.16 1010.94 1011.11 1011.11 1011.80 1011.71 1011.91 1012.04 1011.73 1011.76 1011.53 1011.28 1010.41 1009.04 1009.26 1009.70 1009.46 1009.81 1009.72 1010.33 1010.53 1010.34 1010.65 1010.59 1010.93 1010.76 1011.14 1010.51 1011.07 1010.27 1010.86 1011.51 1012.16 1012.42 1013.46 1014.15 1014.72
1004.75 1005.58 1006.12 1007.26 1007.40 1008.38 1008.89 1009.57 1009.71 1010.19 1010.61 1011.02 1011.10 1011.08 1011.25 1011.14 1010.50 1009.92 1010.61 1010.68 1009.86 1009.29 1009.10 1009.25 1008.94 1010.03 1010.02 1010.37 1010.43 1010.20 1010.56 1010.34 1010.16 1009.99 1010.05 1010.16 1010.12 1009.40 1009.86 1011.55 1012.24 1012.39 1013.17 1014.20 1015.16
1003.67 1004.43 1005.07 1006.94 1007.53 1008.34 1008.50 1008.68 1008.95 1009.35 1009.65 1009.63 1009.86 1010.52 1010.62 1009.92 1009.90 1009.81 1010.22 1010.30 1010.73 1009.29 1008.72 1008.90 1009.20 1009.86 1009.07 1009.05 1009.72 1009.72 1009.39 1008.80 1009.14 1009.44 1009.80 1009.59 1008.89 1008.75 1010.33 1011.26 1011.93 1012.64 1013.48 1014.60 1015.75
Wind_Speed
13 13 13 11 10 8 9 12 12 10 9 8 7 5 4 5 5 3 7 8 5 5 5 5 4 5 4 4 3 3 4 1 4 5 3 2 2 3 0 4 1 2 1 1 3
10 11 12 12 12 9 8 8 9 10 10 9 8 5 3 4 2 9 7 13 11 8 2 1 0 1 2 2 2 5 3 8 3 2 0 2 1 2 2 2 1 2 1 3 6
12 9 10 12 12 11 10 8 7 9 11 10 8 5 1 1 4 8 5 17 12 8 3 1 3 3 3 1 3 4 6 4 3 2 2 4 4 2 5 3 5 3 2 4 4
13 11 9 10 11 11 9 9 8 8 9 10 9 6 4 2 7 1 9 15 10 5 3 3 3 5 4 5 3 4 6 5 2 2 3 3 4 5 3 4 5 3 2 5 7
14 11 9 9 8 9 10 9 9 8 9 9 11 9 5 3 9 4 13 9 5 5 6 5 5 5 6 4 2 4 4 4 5 4 4 3 6 6 5 7 1 3 4 7 7
14 12 9 9 9 9 9 9 9 8 10 9 10 12 4 12 7 5 6 3 1 5 5 5 4 4 4 3 5 2 4 1 3 4 4 4 5 5 6 2 6 3 6 7 8
17 14 13 11 11 10 10 9 10 9 10 10 11 9 13 13 4 4 7 2 3 4 4 2 1 0 3 2 5 1 1 3 4 4 5 4 9 10 8 4 6 7 6 6 10
17 16 13 12 12 11 11 10 10 10 9 10 11 6 10 15 8 3 3 4 3 4 2 5 5 1 1 2 4 2 2 1 3 9 6 9 12 4 6 6 11 8 8 7 8
18 17 16 15 14 13 12 11 10 10 8 8 3 3 8 6 11 16 5 1 1 3 3 3 5 3 2 5 2 2 4 6 5 9 5 9 8 4 6 9 9 8 8 6 8
19 18 17 16 15 13 14 12 9 8 4 2 5 3 8 3 6 9 8 8 2 5 5 4 3 4 4 8 11 7 5 6 6 2 5 6 9 11 5 0 6 8 9 8 8
18 18 17 17 17 15 8 1 0 4 6 9 2 11 5 4 5 4 7 10 2 4 8 7 7 20 18 13 1 6 5 7 2 3 3 8 9 20 10 5 9 10 8 10 11
19 19 18 18 21 17 10 8 6 0 6 17 19 11 8 1 7 7 14 11 9 15 7 7 25 8 9 9 7 3 5 5 4 3 2 5 12 13 10 9 10 11 10 12 8
19 19 19 20 19 14 12 16 8 6 6 6 18 20 6 9 4 14 17 11 16 17 20 19 5 18 11 12 14 15 11 4 1 1 1 6 16 9 8 5 6 9 10 8 11
20 21 19 17 12 10 14 5 6 8 7 9 10 10 14 5 17 5 8 11 7 24 17 16 19 9 5 16 16 16 8 6 5 4 5 3 15 9 2 7 6 9 9 9 9
21 21 20 18 2 13 7 8 10 4 9 10 17 7 15 20 9 15 7 9 14 10 12 16 12 18 9 17 16 8 8 14 5 5 2 5 4 3 2 5 6 8 9 10 11
23 24 21 12 10 7 8 12 7 9 10 5 11 16 16 20 19 7 8 5 1 12 21 26 3 15 15 10 18 7 7 5 3 4 10 18 9 24 10 8 5 6 9 9 9
24 24 19 10 14 9 11 9 10 12 3 5 9 14 26 21 28 12 22 21 14 7 15 16 8 2 7 8 6 9 11 3 7 10 15 10 8 24 1 3 7 6 9 11 7
24 22 15 12 11 13 11 10 15 11 7 4 7 9 26 21 23 32 10 18 24 20 5 14 12 19 6 8 10 20 16 8 10 7 9 8 13 13 8 13 20 16 19 7 7
21 10 8 11 13 12 11 16 9 6 11 7 4 10 13 23 8 25 34 7 24 27 18 11 12 6 6 7 17 12 17 8 6 2 3 6 8 9 8 7 9 11 6 8 4
8 4 13 13 15 11 11 21 5 6 5 11 9 6 12 17 19 20 26 33 5 22 14 5 7 7 19 7 11 14 10 8 7 8 8 4 5 10 2 7 6 7 6 6 5
5 4 7 15 13 9 13 7 5 2 4 5 4 1 4 7 17 15 11 17 17 18 18 3 3 4 13 18 19 6 10 7 4 5 7 3 9 9 14 7 7 8 8 9 8
3 9 5 18 14 3 12 9 8 5 3 4 3 4 2 6 6 20 17 23 24 14 26 9 4 6 13 15 20 22 20 17 8 10 6 1 10 3 7 7 8 9 8 6 7
4 6 5 10 13 6 4 4 5 4 5 7 5 4 6 2 6 6 21 10 12 25 18 15 6 9 3 2 2 14 19 17 17 2 14 10 10 5 5 6 8 11 8 7 7
5 4 5 7 1 5 7 5 5 1 5 5 6 6 3 7 8 8 11 10 12 22 28 19 15 7 15 3 8 11 21 18 21 14 13 14 17 12 4 8 8 6 7 8 7
3 5 5 5 12 7 6 10 16 7 3 6 3 7 10 7 9 12 12 19 17 17 22 17 22 24 23 9 4 11 22 27 24 26 18 21 18 25 13 11 13 13 8 8 7
6 5 3 3 11 9 12 7 14 10 9 5 5 12 11 10 14 13 4 5 9 13 15 16 16 20 21 23 19 6 18 20 25 24 25 20 12 22 9 7 7 11 10 8 7
2 2 6 6 7 8 7 13 13 8 4 7 16 5 8 21 18 13 3 4 9 12 17 15 10 15 18 28 25 25 27 22 19 21 25 23 28 14 7 15 15 10 9 11 8
Wind_Direction
267 273 269 271 273 274 268 256 242 230 232 246 252 256 288 326 319 315 253 235 212 312 335 314 8 335 3 25 38 124 58 193 220 168 170 323 124 347 272 118 56 312 241 333 119
270 267 276 275 269 271 265 270 263 252 238 234 242 246 308 349 298 252 228 248 255 270 313 151 45 17 1 330 27 94 128 216 217 299 325 314 105 215 117 127 263 293 223 43 133
269 272 272 272 274 266 276 264 259 254 247 233 230 232 150 59 326 258 283 247 243 240 261 128 133 138 167 171 205 164 192 200 246 227 347 346 350 312 137 198 220 206 275 133 165
256 254 263 277 269 274 278 283 274 268 257 243 225 209 145 107 242 131 35 4 238 215 193 162 123 143 159 190 205 153 231 186 217 169 360 315 315 325 204 224 128 243 202 164 190
264 260 251 253 267 268 271 275 288 272 260 246 229 186 126 214 247 290 338 342 125 151 175 160 155 148 178 187 152 176 214 213 267 303 259 316 256 252 244 254 44 99 165 199 209
264 253 243 233 247 260 268 270 276 285 278 256 238 182 164 234 233 319 312 51 93 145 161 153 203 192 156 190 168 214 200 233 276 245 250 225 250 174 261 235 167 170 215 217 214
272 254 240 230 233 242 250 264 270 276 274 278 254 217 218 215 188 98 38 48 127 183 154 179 71 67 136 156 244 148 245 308 232 239 249 159 288 229 209 193 201 230 238 234 237
269 255 244 237 232 237 236 250 260 265 279 271 273 229 259 192 203 102 57 352 60 158 72 143 85 35 220 270 24 192 113 144 256 185 237 124 257 179 217 219 246 234 240 247 253
267 260 250 243 239 236 240 243 244 257 268 270 274 181 264 166 200 224 129 283 39 113 130 93 93 188 318 120 38 348 207 199 287 201 168 185 270 235 221 202 243 264 259 236 264
265 260 245 240 242 236 236 244 259 264 248 13 245 185 210 203 153 166 175 175 215 135 123 133 117 181 194 176 206 183 203 240 210 214 222 214 256 260 246 209 250 264 280 274 243
259 257 249 238 233 229 229 210 263 241 215 207 215 236 114 159 80 159 150 138 191 180 186 173 197 215 198 204 33 155 182 197 232 236 196 237 247 267 260 235 256 254 252 259 263
253 256 247 243 241 222 213 202 205 359 245 223 252 242 234 19 169 182 148 153 175 202 141 190 228 195 159 186 207 183 207 212 281 277 189 319 272 253 257 237 215 231 229 242 251
256 250 243 244 239 234 217 216 125 49 265 234 215 231 214 186 222 189 181 156 179 189 199 206 269 171 169 190 199 219 215 164 146 10 316 356 289 241 245 246 195 224 223 225 224
254 246 235 238 241 222 226 171 131 78 243 218 198 240 196 234 220 186 204 173 185 201 187 223 220 164 173 196 187 221 173 147 175 95 245 121 275 239 181 243 233 230 241 245 245
245 249 230 208 187 190 193 153 138 104 242 204 191 182 178 197 140 188 196 231 199 166 163 213 172 200 203 211 186 213 143 199 162 163 33 234 287 256 48 286 271 269 244 239 234
243 245 232 221 212 206 165 155 131 207 231 183 160 178 157 188 212 137 157 183 258 204 203 216 177 182 204 168 183 137 78 75 126 153 239 233 193 276 241 222 214 228 246 245 255
238 243 235 202 210 180 163 166 212 213 106 198 182 172 189 188 205 197 184 186 197 192 197 215 201 225 150 146 151 161 143 157 214 207 235 165 172 244 172 232 175 226 268 270 256
234 241 237 220 204 183 178 205 220 187 178 213 197 180 194 187 210 203 217 208 201 190 180 195 199 205 184 183 183 195 184 171 197 199 233 145 219 243 216 235 256 243 251 269 271
237 228 229 219 188 181 191 214 214 156 171 144 65 195 207 206 185 205 208 202 205 187 203 207 222 152 196 182 164 183 210 179 104 51 69 212 289 297 241 228 249 243 275 290 317
219 211 236 200 188 181 228 213 172 186 121 204 173 193 187 195 211 192 202 220 226 207 223 221 224 186 195 146 206 182 157 188 203 195 223 238 259 232 204 244 249 215 163 137 127
191 225 211 177 185 201 206 202 126 184 119 142 141 296 209 236 218 210 209 214 189 199 207 187 224 210 150 200 191 157 189 209 168 196 202 224 246 200 232 210 195 156 168 158 148
162 229 207 158 191 178 197 151 137 172 88 95 104 103 242 217 252 223 222 209 183 174 209 195 189 196 203 200 204 200 202 196 188 213 218 201 243 239 233 211 166 180 174 160 143
185 206 206 156 194 175 93 94 155 119 166 147 149 208 178 223 300 239 231 222 185 191 194 183 213 185 168 302 310 217 212 205 224 57 201 214 239 214 192 159 180 169 184 169 157
165 169 198 177 150 112 132 146 143 7 147 133 163 177 149 259 172 283 323 258 209 201 207 193 230 233 230 227 136 197 214 212 210 223 221 221 242 244 235 203 179 167 176 176 175
190 197 193 177 187 159 161 173 191 164 232 157 59 163 177 224 239 230 246 263 266 212 204 208 227 234 240 248 209 205 216 215 213 219 216 225 218 246 215 194 188 186 172 159 141
134 141 68 122 136 146 172 192 191 184 152 208 185 190 184 199 221 260 141 210 230 198 204 210 231 227 239 235 228 216 222 221 217 229 232 240 237 237 215 171 189 193 171 154 154
178 82 107 148 132 150 187 192 198 136 234 190 209 184 203 226 234 263 214 228 277 253 204 208 217 229 238 234 234 237 228 217 226 226 225 224 230 221 180 191 201 199 176 164 141